[[{"header":{"parameterUnit":"m.s-1","parameterCategory":1,"la1":30.2991,"la2":30.254,"lo1":-89.0895,"lo2":-89.0444,"dy":0.0017,"dx":0.0017,"nx":28,"ny":28,"refTime":"2024-06-15T03:00:00:Z","depth":0,"parameterNumber":2,"parameterNumberName":"U-component_of_WINDS"},"data":[0,0,0,0,0,0,0,0,0,0,0,0,0,0,0,0,0,0,0,0,0,0,0,0,0,0,0,0,0,0,0,0,0,0,0,0,0,0,0,0,0,0,0,0,0,0,0,0,0,0,0,0,0,0,0,0,0,0,-3.1094,-3.1094,0,-3.1068,-3.1068,-3.1067,-3.105,-3.1049,-3.1049,-3.1049,-3.1018,-3.1017,-3.1017,0,0,0,0,0,0,0,0,0,0,0,0,0,-3.1125,-3.1124,-3.1094,-3.1094,-3.1093,-3.1068,-3.1068,-3.1067,-3.105,-3.1049,-3.1049,-3.1049,-3.1018,-3.1017,-3.1017,0,0,0,0,0,0,0,0,0,0,0,0,0,-3.1106,-3.1124,-3.1094,-3.1081,-3.108,-3.1068,-3.1068,-3.1067,-3.105,-3.1049,-3.1049,-3.1049,-3.1019,-3.1018,-3.1017,-3.1013,0,0,-3.1013,-3.1013,0,0,0,0,0,0,0,0,-3.1107,-3.1105,-3.1084,-3.1082,-3.1081,-3.1062,-3.1067,-3.1049,-3.105,-3.1061,-3.1049,-3.1049,-3.1033,-3.103,-3.1026,-3.1012,-3.1011,-3.1013,-3.1012,-3.1012,-3.1012,0,0,0,0,0,0,0,-3.1109,-3.1106,-3.1083,-3.1083,-3.1082,-3.1076,-3.1073,-3.1064,-3.1048,-3.106,-3.1059,-3.1056,-3.1032,-3.1027,-3.1025,-3.101,-3.1013,-3.1012,-3.1012,-3.1011,-3.0993,-3.0993,0,0,0,0,0,0,-3.1112,-3.1107,-3.1084,-3.1083,-3.1094,-3.1076,-3.1073,-3.1068,-3.1048,-3.1045,-3.1056,-3.1055,-3.1029,-3.1026,-3.1024,-3.1019,-3.1012,-3.1011,-3.101,-3.0993,-3.0993,-3.0994,0,0,0,0,0,0,-3.1113,-3.111,-3.1085,-3.1095,-3.1091,-3.1075,-3.107,-3.1068,-3.1063,-3.1045,-3.1042,-3.1054,-3.1028,-3.1025,-3.1017,-3.1018,-3.1011,-3.101,-3.0993,-3.0993,-3.0993,-3.101,0,0,0,0,0,0,-3.1114,-3.1111,-3.111,-3.1095,-3.1091,-3.108,-3.1071,-3.1067,-3.1061,-3.106,-3.1043,-3.1039,-3.1028,-3.1018,-3.1016,-3.1016,-3.1009,-3.0993,-3.0993,-3.0993,-3.1009,-3.101,-3.1012,0,0,0,0,0,-3.1115,-3.1115,-3.111,-3.1108,-3.109,-3.108,-3.1077,-3.1065,-3.1062,-3.106,-3.1049,-3.104,-3.1018,-3.1018,-3.1014,-3.1014,-3.0993,-3.0993,-3.0993,-3.1008,-3.101,-3.1012,0,0,0,0,0,0,-3.1129,-3.1112,-3.1107,-3.1102,-3.1093,-3.1077,-3.1075,-3.1068,-3.1058,-3.1057,-3.1041,-3.1037,-3.103,-3.1022,-3.1021,-3.1011,-3.1004,-3.1004,-3.1017,-3.1018,-3.102,-3.1021,-3.1008,0,0,0,0,0,-3.1131,-3.1126,-3.1111,-3.1108,-3.1104,-3.109,-3.1086,-3.1078,-3.1067,-3.1062,-3.105,-3.1039,-3.103,-3.1024,-3.1014,-3.1008,-3.1004,-3.1006,-3.1008,-3.1009,-3.1009,-3.1005,-3.1006,-3.0995,-3.0995,-3.0995,0,0,-3.1136,-3.1127,-3.1124,-3.1111,-3.1102,-3.1096,-3.1087,-3.108,-3.1075,-3.106,-3.1052,-3.1043,-3.103,-3.1023,-3.1019,-3.1015,-3.1011,-3.101,-3.1011,-3.1009,-3.1005,-3.1007,-3.1007,-3.0995,-3.0995,-3.0995,0,0,-3.1142,-3.1134,-3.1131,-3.1123,-3.1112,-3.1103,-3.1103,-3.1088,-3.1082,-3.1074,-3.1063,-3.1056,-3.104,-3.1031,-3.1025,-3.1029,-3.1019,-3.1026,-3.1032,-3.1029,-3.103,-3.1031,-3.1032,-3.1032,-3.1026,-3.1026,-3.1026,0,-3.1148,-3.114,-3.113,-3.1124,-3.1119,-3.1107,-3.1103,-3.1096,-3.1081,-3.1077,-3.1074,-3.1055,-3.1044,-3.1035,-3.1037,-3.1032,-3.103,-3.1027,-3.1031,-3.1032,-3.1032,-3.1033,-3.1033,-3.1027,-3.1026,-3.1026,-3.1026,0,-3.1149,-3.1143,-3.1142,-3.113,-3.1124,-3.1119,-3.1108,-3.1103,-3.1096,-3.1087,-3.1079,-3.1067,-3.1055,-3.1053,-3.1045,-3.1042,-3.104,-3.1034,-3.1027,-3.1034,-3.1035,-3.1035,-3.1028,-3.1027,-3.1027,-3.1027,0,0,-3.1161,-3.1145,-3.1144,-3.1139,-3.1126,-3.1121,-3.1116,-3.1106,-3.1102,-3.1092,-3.1087,-3.1075,-3.107,-3.1062,-3.1053,-3.1051,-3.1055,-3.1045,-3.1044,-3.1047,-3.1051,-3.1055,-3.1056,-3.1049,-3.1049,-3.1049,-3.1052,0,-3.1164,-3.1155,-3.1146,-3.1141,-3.1135,-3.1125,-3.112,-3.1111,-3.1103,-3.1097,-3.1087,-3.1079,-3.1073,-3.1068,-3.1065,-3.1055,-3.1055,-3.1055,-3.1043,-3.1043,-3.1046,-3.1056,-3.106,-3.1063,-3.1052,-3.1052,-3.1052,0,-3.1166,-3.1159,-3.1153,-3.1142,-3.1139,-3.1135,-3.1126,-3.112,-3.1109,-3.1104,-3.1097,-3.1088,-3.1081,-3.1076,-3.1066,-3.1066,-3.1061,-3.1055,-3.1055,-3.1053,-3.1047,-3.1053,-3.1064,-3.1064,-3.1052,-3.1052,-3.1052,0,-3.1175,-3.1164,-3.1159,-3.1155,-3.1141,-3.1139,-3.1133,-3.1123,-3.1118,-3.1109,-3.1106,-3.1096,-3.109,-3.1082,-3.1071,-3.1069,-3.1062,-3.1056,-3.1057,-3.1057,-3.1055,-3.1055,-3.1064,-3.1053,-3.1053,-3.1053,-3.1053,0,-3.1179,-3.1175,-3.1163,-3.116,-3.1156,-3.1146,-3.1141,-3.1134,-3.1126,-3.112,-3.1111,-3.1105,-3.1091,-3.1084,-3.1075,-3.1069,-3.1066,-3.1061,-3.1058,-3.1061,-3.1062,-3.1057,-3.1056,-3.1053,-3.1053,-3.1053,-3.1053,0,-3.1187,-3.1179,-3.1173,-3.1162,-3.1159,-3.1156,-3.1146,-3.1142,-3.1134,-3.1128,-3.1126,-3.1113,-3.1105,-3.1093,-3.108,-3.1075,-3.1069,-3.1065,-3.1072,-3.1071,-3.1072,-3.1072,-3.1077,-3.1077,-3.1067,-3.1067,-3.1067,0,-3.119,-3.1188,-3.1176,-3.1173,-3.1168,-3.1162,-3.1158,-3.1148,-3.1143,-3.1132,-3.1129,-3.112,-3.1113,-3.11,-3.1088,-3.1079,-3.1075,-3.1077,-3.1073,-3.1076,-3.1074,-3.1074,-3.1073,-3.1078,-3.1078,-3.1078,-3.1078,0,-3.1196,-3.1192,-3.1186,-3.1179,-3.1174,-3.1168,-3.1161,-3.1158,-3.1147,-3.1142,-3.1134,-3.1128,-3.1117,-3.1108,-3.1097,-3.109,-3.1082,-3.108,-3.108,-3.1082,-3.1086,-3.1084,-3.1075,-3.108,-3.108,-3.108,-3.1079,-3.1079,-3.1201,-3.1199,-3.1191,-3.1185,-3.1179,-3.1173,-3.1169,-3.1162,-3.1156,-3.1146,-3.1141,-3.1133,-3.1123,-3.1108,-3.1101,-3.1095,-3.1091,-3.1091,-3.109,-3.109,-3.1091,-3.1089,-3.1093,-3.1093,-3.1093,-3.1092,-3.1092,0,-3.1206,-3.1201,-3.1196,-3.1187,-3.1182,-3.1177,-3.117,-3.1166,-3.1159,-3.1152,-3.1145,-3.1136,-3.1128,-3.1117,-3.1108,-3.1104,-3.1101,-3.1102,-3.1102,-3.11,-3.1095,-3.1096,-3.1105,-3.1105,-3.1105,-3.1105,-3.1105,-3.1105,-3.1208,-3.1203,-3.1199,-3.1191,-3.1186,-3.1179,-3.1175,-3.117,-3.1164,-3.1155,-3.1148,-3.1142,-3.1133,-3.1123,-3.1115,-3.1112,-3.1109,-3.1111,-3.1107,-3.1102,-3.11,-3.1099,-3.11,-3.1111,-3.1111,-3.1113,-3.1113,-3.1113]},{"header":{"parameterUnit":"m.s-1","parameterCategory":1,"la1":30.2991,"la2":30.254,"lo1":-89.0895,"lo2":-89.0444,"dy":0.0017,"dx":0.0017,"nx":28,"ny":28,"refTime":"2024-06-15T03:00:00:Z","depth":0,"parameterNumber":3,"parameterNumberName":"V-component_of_WINDS"},"data":[0,0,0,0,0,0,0,0,0,0,0,0,0,0,0,0,0,0,0,0,0,0,0,0,0,0,0,0,0,0,0,0,0,0,0,0,0,0,0,0,0,0,0,0,0,0,0,0,0,0,0,0,0,0,0,0,0,0,4.1391,4.139,0,4.1328,4.1328,4.1327,4.1312,4.1313,4.1313,4.1313,4.1243,4.1241,4.1239,0,0,0,0,0,0,0,0,0,0,0,0,0,4.1492,4.149,4.1391,4.139,4.1389,4.1328,4.1328,4.1327,4.1312,4.1313,4.1313,4.1314,4.1244,4.1242,4.1239,0,0,0,0,0,0,0,0,0,0,0,0,0,4.1441,4.149,4.1391,4.1375,4.1373,4.1329,4.1328,4.1326,4.1312,4.1313,4.1313,4.1314,4.1245,4.1242,4.1238,4.1204,0,0,4.1228,4.1227,0,0,0,0,0,0,0,0,4.1444,4.1437,4.1378,4.1376,4.1373,4.1329,4.1338,4.1285,4.1312,4.1335,4.1313,4.1314,4.1271,4.1265,4.1252,4.1201,4.1198,4.1228,4.1226,4.1224,4.1223,0,0,0,0,0,0,0,4.1447,4.1439,4.1366,4.1377,4.1374,4.1369,4.1362,4.1328,4.13,4.1333,4.1332,4.1325,4.127,4.1255,4.125,4.1197,4.1228,4.1225,4.1223,4.1221,4.1115,4.1115,0,0,0,0,0,0,4.1454,4.1443,4.1368,4.1364,4.1411,4.1367,4.1359,4.1342,4.13,4.1294,4.1324,4.1324,4.1261,4.1254,4.1248,4.1206,4.1224,4.1221,4.1219,4.1116,4.1115,4.1114,0,0,0,0,0,0,4.1457,4.1448,4.137,4.1403,4.1393,4.1364,4.1345,4.1341,4.1326,4.1294,4.1288,4.1315,4.1261,4.1253,4.1216,4.1203,4.1219,4.1216,4.1117,4.1116,4.1115,4.112,0,0,0,0,0,0,4.146,4.1449,4.1436,4.1403,4.1391,4.1341,4.1344,4.1339,4.1321,4.1321,4.1284,4.1278,4.1261,4.1221,4.1212,4.1198,4.1214,4.1118,4.1117,4.1115,4.1121,4.112,4.1118,0,0,0,0,0,4.1463,4.1439,4.1436,4.1427,4.1375,4.134,4.1333,4.1316,4.132,4.1307,4.1286,4.1279,4.1206,4.1217,4.1208,4.1192,4.1119,4.1117,4.1115,4.1122,4.112,4.1118,0,0,0,0,0,0,4.1469,4.1434,4.143,4.1395,4.1371,4.1338,4.132,4.1314,4.1287,4.1287,4.1265,4.1257,4.1221,4.1203,4.1216,4.1158,4.1162,4.1158,4.1171,4.1169,4.1167,4.1172,4.1211,0,0,0,0,0,4.1467,4.1443,4.1413,4.1384,4.1373,4.1349,4.1333,4.1322,4.1295,4.1284,4.1261,4.1233,4.1204,4.1185,4.1157,4.1119,4.111,4.1104,4.1102,4.1101,4.1098,4.1077,4.1074,4.1109,4.1109,4.1109,0,0,4.1461,4.1439,4.1424,4.1385,4.1365,4.1339,4.134,4.1312,4.1293,4.1279,4.1244,4.1226,4.1194,4.1157,4.1139,4.114,4.1087,4.1099,4.1098,4.1095,4.1075,4.1071,4.1069,4.1108,4.1108,4.1108,0,0,4.1437,4.1418,4.1393,4.1373,4.1344,4.1329,4.1323,4.1291,4.1279,4.1244,4.1233,4.1209,4.1159,4.1137,4.112,4.1089,4.1082,4.1081,4.1072,4.1052,4.1049,4.1047,4.1036,4.1032,4.1077,4.1077,4.1077,0,4.1432,4.1395,4.138,4.1353,4.1336,4.1326,4.1299,4.128,4.1242,4.123,4.1233,4.1172,4.1149,4.1107,4.11,4.1086,4.1078,4.1084,4.1051,4.1048,4.1046,4.1035,4.1031,4.1078,4.1078,4.1078,4.1078,0,4.1391,4.1365,4.1348,4.1314,4.1295,4.1269,4.1248,4.1231,4.1222,4.1206,4.117,4.1143,4.111,4.1099,4.1089,4.1055,4.1057,4.1056,4.106,4.1043,4.1032,4.1028,4.1078,4.1078,4.1078,4.1078,0,0,4.1367,4.1327,4.1321,4.1306,4.1274,4.1253,4.1226,4.1196,4.1181,4.1155,4.1131,4.1091,4.109,4.107,4.1058,4.104,4.1018,4.1041,4.104,4.1037,4.098,4.0981,4.0976,4.1013,4.1013,4.1012,4.0982,0,4.1339,4.1293,4.1279,4.1239,4.1215,4.1206,4.1182,4.1159,4.1144,4.112,4.1102,4.1074,4.1075,4.1063,4.1045,4.1025,4.1006,4.1027,4.099,4.0989,4.0998,4.0971,4.0972,4.0945,4.0978,4.0978,4.0977,0,4.1299,4.1276,4.1235,4.1207,4.1196,4.1176,4.1147,4.1125,4.1099,4.1089,4.1068,4.1057,4.1028,4.1035,4.0993,4.1007,4.0992,4.0979,4.0978,4.0973,4.0981,4.0965,4.0936,4.0932,4.097,4.0971,4.0971,0,4.1286,4.1244,4.1215,4.1202,4.1169,4.1155,4.114,4.1115,4.1097,4.1072,4.106,4.1031,4.1015,4.0991,4.0973,4.098,4.0933,4.0938,4.0923,4.0924,4.0913,4.0914,4.0881,4.0904,4.0904,4.0904,4.0904,0,4.1256,4.1231,4.1209,4.119,4.1162,4.1146,4.1118,4.1102,4.108,4.1058,4.1047,4.1025,4.1003,4.0978,4.0963,4.0932,4.0924,4.0914,4.0911,4.0915,4.0916,4.0904,4.0905,4.0903,4.0903,4.0903,4.0903,0,4.1236,4.122,4.1187,4.116,4.1152,4.1133,4.1108,4.1089,4.1074,4.1046,4.1038,4.1014,4.0985,4.0965,4.0926,4.0916,4.0882,4.0878,4.0891,4.0889,4.0875,4.0877,4.0833,4.0826,4.0854,4.0853,4.0853,0,4.1218,4.1199,4.117,4.1156,4.1142,4.1117,4.1101,4.1085,4.1067,4.1037,4.1021,4.0992,4.0968,4.0921,4.0899,4.087,4.0865,4.0852,4.0861,4.0866,4.0865,4.0866,4.0864,4.085,4.085,4.085,4.085,0,4.1187,4.1181,4.1158,4.1133,4.1114,4.1093,4.1071,4.1059,4.1039,4.102,4.0991,4.0973,4.0935,4.0906,4.0875,4.0858,4.085,4.0848,4.0842,4.0846,4.0855,4.085,4.0887,4.0848,4.0848,4.0848,4.0849,4.0849,4.1167,4.115,4.1128,4.1103,4.1086,4.1067,4.1048,4.1032,4.1009,4.0978,4.097,4.094,4.0914,4.0872,4.0855,4.0831,4.0831,4.0824,4.0822,4.082,4.0821,4.086,4.0825,4.0825,4.0825,4.0825,4.0825,0,4.1136,4.1122,4.1099,4.1071,4.1051,4.1049,4.1025,4.1008,4.0983,4.0961,4.0938,4.0905,4.0877,4.0854,4.0825,4.0809,4.0805,4.0802,4.0803,4.0799,4.0821,4.0829,4.0806,4.0806,4.0806,4.0806,4.0806,4.0806,4.1117,4.1089,4.108,4.1043,4.1028,4.1,4.0987,4.0969,4.0952,4.0916,4.0894,4.088,4.0857,4.0826,4.08,4.0794,4.0783,4.0781,4.0774,4.0795,4.0797,4.0799,4.0806,4.0779,4.0779,4.0754,4.0754,4.0753]}]]